Showing default

GONETS M 18, 46487

Orbit data source: Space-Track

GONETS M 18, 46487 is a payload satellite owned by Gonets (CIS) in LEO that was launched on Mon, 28 Sep 2020 UTC via a SOYUZ-2-1B launch vehicle from the Plesetsk Missile And Space Complex (PKMTR). Payload-class satellites include a variety of spacecraft equipped with specific instruments for various scientific and technological missions. These include communications satellites like Starlink; space stations such as the ISS; scientific satellites like the Hubble; Earth observation satellites from companies like Planet Labs, Umbra, and HawkEye 360; GPS; miniature CubeSats for education and research; and military/defense satellites.

Loading next visibility...
Identifier
46487, 2020-068B
Orbit
LEO
Country
Flag of CISCIS
Related business
Manufacturer
Resehetnev ISS
Mission
Operational Commercial Communications
Bus & Motor
STRELA-3M, Unknown motor
Mass
225 kg wet, 225 kg dry
Launch date (UTC)
2020-09-28 (5 years ago)
Launch vehicle
SOYUZ-2-1B
Launch site
Plesetsk Missile And Space Complex (PKMTR)
Object type
Payload
Rocket body
Debris
Shape & HBR
Cyl + 1 Ant, 3.5 m
Radar Cross Section
1.798 m², Large (>1 m²)

Expand to show TLE details & history
Last TLE update: 5 hours ago

TLE from 5 hours ago
0 GONETS M 18
1 46487U 20068B   25242.98013882  .00000035  00000-0  18496-3 0  9998
2 46487  82.4971 167.2663 0019547 309.0798  50.8542 12.42886084223098
Epoch: 2025-08-30T23:31Z
TLE epoch observation values (Epoch: 2025-08-30T23:31:23.994Z)
Latitude
-0.00004°
Longitude
-164.99034°
Altitude
1,487.394 km
Speed
7.124 km/s
True Right ascension
11h 09m 03s
True Declination
0° 00' 00"
Sunlit
Object was in daylight at epoch
Visualization orbit readout
Latitude
Unknown
Longitude
Unknown
Altitude
Unknown
Speed
Unknown
Apparent Right ascension
Unknown
Apparent Declination
Unknown
Sunlit
N/A
Visualization observer readout
Local Sidereal Time
20:05:23
Azimuth
Unknown
Elevation
Unknown
Doppler factor
Unknown
Orbital elements
Apogee altitude
1,507.127 km
Perigee altitude
1,476.361 km
Semi-major axis
7,869.881 km
Eccentricity
0.00195
Inclination
82.4971°
RAAN
167.2663°
Arg. of periapsis
309.0798°
True anomaly
51.02818°
Mean anomaly
50.8542°
Eccentric anomaly
50.94116°
Mean motion
3.10879 °/min
Orbital period
115.8 mins
BSTAR
0.00018496
Loading maneuver chart data...
Computing Atmospheric mass density...
Loading historical data...
Loading historical data...
Loading historical data...
Loading historical data...
Loading historical data...
Loading historical data...
Loading historical data...

Documentation

Showing up to 5 results
|